Regional Weather Roundup
Issued by NWS

Home | Current Version | Previous Version | Text Only | Print | Product List | Glossary Off
Versions: 1 2 3 4 5 6 7 8 9 10 11 12 13 14 15 16 17 18 19 20 21 22 23 24 25 26 27 28 29 30 31 32 33 34 35 36 37 38 39 40 41 42 43 44 45 46 47 48 49 50

847
ASUS43 KBIS 091110
RWRND

NORTH DAKOTA REGIONAL WEATHER ROUNDUP
NATIONAL WEATHER SERVICE BISMARCK ND
500 AM CST FRI DEC 09 2016

NOTE: "FAIR" INDICATES FEW OR NO CLOUDS BELOW 12,000 FEET WITH NO
SIGNIFICANT WEATHER AND/OR OBSTRUCTIONS TO VISIBILITY.


NDZ001>003-009>011-017-091200-
NORTHWEST NORTH DAKOTA

CITY           SKY/WX    TMP DP  RH WIND       PRES   REMARKS
WILLISTON      CLOUDY   -17 -22  78 CALM      30.56S
MINOT          CLOUDY    -9 -14  78 W9        30.54S WCI -26
MINOT AFB      CLOUDY   -12 -17  78 NW9       30.54S WCI -31
$$

NDZ018>021-031>035-040>046-091200-
SOUTHWEST NORTH DAKOTA

CITY           SKY/WX    TMP DP  RH WIND       PRES   REMARKS
BISMARCK       CLOUDY   -14 -17  87 CALM      30.56S
DICKINSON      CLOUDY   -20 -26  74 CALM      30.42F
GARRISON         N/A    -15 -19  82 NW9       30.52F WCI -34
HETTINGER ARPT CLOUDY   -18 -23  77 W3        30.43S
$$

NDZ004>008-012>016-024-026-027-054-091200-
NORTHEAST NORTH DAKOTA

CITY           SKY/WX    TMP DP  RH WIND       PRES   REMARKS
GRAND FORKS    CLOUDY     7  -1  70 NW13      30.56F WCI  -9
GRND FRKS AFB  CLOUDY     3  -5  68 NW8       30.56F WCI -11
DEVILS LAKE    CLEAR     -7 -11  83 NW9       30.54S WCI -24
$$

NDZ022-023-025-028>030-036>039-047>053-091200-
SOUTHEAST NORTH DAKOTA

CITY           SKY/WX    TMP DP  RH WIND       PRES   REMARKS
FARGO          CLOUDY     8   1  73 W7        30.57F WCI  -3
JAMESTOWN      CLEAR     -7 -11  83 NW9       30.53S WCI -24
$$





USA.gov is the U.S. government's official web portal to all federal, state and local government web resources and services.